{"data":{"norad_id":43636,"intl_designator":"2018-075A","name":"CENTISPACE-1 S1","alt_names":[],"object_type":"PAYLOAD","status":"ACTIVE","operator":null,"country":"PRC","launch_date":"2018-09-29","launch_site_code":"JSC","launch_vehicle":null,"mission":null,"orbit_class":"UNKNOWN","rcs_meters":null,"size_class":null,"mass_kg":null,"dimensions":null,"purposes":[],"wikipedia_slug":null,"has_3d_model":false,"image_url":null,"decayed_at":null,"tle_current":{"epoch":"2026-05-25T03:35:21.888960Z","epoch_age_seconds":62394,"freshness":"FRESH","line1":"1 43636U 18075A   26145.14955890  .00000479  00000+0  10883-3 0  9994","line2":"2 43636  97.8737 170.0699 0008412 183.5912 176.5230 14.59965489407196","mean_motion":14.59965489,"eccentricity":0.0008412,"inclination_deg":97.8737,"raan_deg":170.0699,"arg_perigee_deg":183.5912,"mean_anomaly_deg":176.523,"bstar":0.00010883,"rev_number":40719,"period_min":98.632468428163,"perigee_km":687.33694316138,"apogee_km":699.23390424702,"semimajor_km":7071.4224237042,"source":"CELESTRAK","updated_at":"2026-05-25T13:37:55.862760Z"}}}